Location: Baili�vre
(50.0696°N, 4.2409°E)
Time: 06:04:43
(UTC+00:00)

USA 32 - Pass Details

Date: 08 August 2020
Orbit: 778 x 782 km, 85.0° (Epoch: 21 September)

Event Time Altitude Azimuth Distance (km) Brightness Sun altitude
Exits shadow 20:53:03 14° 170° (S) 2,056 5.7 -13.7°
Maximum altitude 20:57:29 64° 92° (E) 865 4.1 -14.1°
Drops below altitude 10° 21:02:41 10° 12° (NNE) 2,346 7.0 -14.7°
Sets 21:05:04 0° 9° (N) 3,278 7.9 -15.0°
